This is the latest recevied weather packets stored in our database for station/object HA8LNU. If no packets are shown the sender has not sent any weather packets the latest 10 day(s).
| Time | Temp. | Humidity | Pressure | Rain* | Wind** | Luminosity | Snow |
|---|---|---|---|---|---|---|---|
| 1778397362 | 15.56° C | 71% | 1017.7 hPa | 0 mm | - | - | - |
| 1778395535 | 15° C | 71% | 1017.6 hPa | 0 mm | - | - | - |
| 1778394933 | 14.44° C | 72% | 1017.7 hPa | 0 mm | - | - | - |
| 1778394331 | 14.44° C | 72% | 1017.6 hPa | 0 mm | - | - | - |
| 1778392525 | 13.89° C | 72% | 1017.5 hPa | 0 mm | - | - | - |
| 1778391320 | 13.33° C | 74% | 1017.4 hPa | 0 mm | - | - | - |
| 1778384155 | 9.44° C | 86% | 1017.4 hPa | 0 mm | - | - | - |
| 1778381747 | 9.44° C | 85% | 1017.2 hPa | 0 mm | - | - | - |
| 1778381145 | 10° C | 85% | 1017.2 hPa | 0 mm | - | - | - |
| 1778373920 | 11.67° C | 88% | 1017.1 hPa | 0 mm | - | - | - |
| 1778372715 | 11.67° C | 88% | 1017.3 hPa | 0 mm | - | - | - |
| 1778363142 | 15° C | 83% | 1017.2 hPa | 0.25 mm | - | - | - |
| 1778359529 | 16.67° C | 70% | 1017.7 hPa | 0 mm | - | - | - |
| 1778355916 | 15.56° C | 65% | 1016.9 hPa | 0 mm | - | - | - |
| 1778351160 | 16.67° C | 61% | 1016.4 hPa | 0 mm | - | - | - |
| 1778349353 | 18.89° C | 51% | 1016.3 hPa | 0 mm | - | - | - |
| 1778345138 | 22.78° C | 36% | 1015.8 hPa | 0 mm | - | - | - |
| 1778339719 | 25.56° C | 31% | 1015.8 hPa | 0 mm | - | - | - |
| 1778338515 | 26.67° C | 31% | 1015.8 hPa | 0 mm | - | - | - |
| 1778334401 | 24.44° C | 34% | 1015.9 hPa | 0 mm | - | - | - |
| 1778331350 | 27.22° C | 32% | 1016.3 hPa | 0 mm | - | - | - |
| 1778325329 | 26.11° C | 41% | 1017.1 hPa | 0 mm | - | - | - |
| 1778322941 | 25° C | 43% | 1017.5 hPa | 0 mm | - | - | - |
| 1778318786 | 21.11° C | 58% | 1017.8 hPa | 0 mm | - | - | - |
| 1778318164 | 20.56° C | 60% | 1017.7 hPa | 0 mm | - | - | - |
* Rain latest hour (hover to see other rain measurements)
** Current wind speed in m/s (hover to see current wind gust speed)